W5HRH Weather Reports


time (UTC)temp
F
wind
direction
speed
knots
gust
knots
rain 1hr
in
rain 24hr
in
rain mn
in
humidity
%
barometer
mb
20260505000539 77 181 2.6 9.6 0.00 0.00 0.00 71 1012.2
20260505000045 77 178 4.3 10.4 0.00 0.00 0.00 71 1012.2
20260504235539 77 126 4.3 12.2 0.00 0.00 0.00 71 1012.1
20260504235038 77 131 4.3 12.2 0.00 0.00 0.00 70 1012.3
20260504234537 77 188 2.6 12.2 0.00 0.00 0.00 70 1012.3
20260504234036 77 183 4.3 12.2 0.00 0.00 0.00 70 1012.5
20260504233540 77 190 3.5 8.7 0.00 0.00 0.00 70 1012.6
20260504233042 77 182 4.3 8.7 0.00 0.00 0.00 70 1012.6
20260504232536 77 241 2.6 7.8 0.00 0.00 0.00 70 1012.7
20260504232035 78 144 3.5 8.7 0.00 0.00 0.00 69 1012.6
20260504231541 78 167 4.3 8.7 0.00 0.00 0.00 69 1012.6
20260504231034 78 188 4.3 8.7 0.00 0.00 0.00 69 1012.8
20260504230534 78 140 3.5 11.3 0.00 0.00 0.00 69 1012.8
20260504230041 78 167 3.5 11.3 0.00 0.00 0.00 68 1012.7
20260504225537 78 140 2.6 8.7 0.00 0.00 0.00 69 1012.9
20260504225034 78 200 4.3 7.8 0.00 0.00 0.00 68 1013.0
20260504224532 78 167 0.9 10.4 0.00 0.00 0.00 68 1012.9
20260504224031 78 195 3.5 10.4 0.00 0.00 0.00 68 1013.0
20260504223530 78 190 2.6 8.7 0.00 0.00 0.00 68 1013.0
20260504223031 78 195 3.5 11.3 0.00 0.00 0.00 68 1013.0
20260504222529 79 233 4.3 12.2 0.00 0.00 0.00 68 1013.0
20260504222029 79 219 4.3 10.4 0.00 0.00 0.00 67 1013.2
20260504221529 79 155 3.5 10.4 0.00 0.00 0.00 66 1013.3
20260504221028 79 185 4.3 10.4 0.00 0.00 0.00 66 1013.3
20260504220528 79 148 1.7 8.7 0.00 0.00 0.00 66 1013.4
20260504220030 79 169 2.6 8.7 0.00 0.00 0.00 65 1013.5
20260504215527 79 227 2.6 7.0 0.00 0.00 0.00 65 1013.4
20260504215027 79 190 3.5 8.7 0.00 0.00 0.00 64 1013.5
20260504214528 79 160 3.5 10.4 0.00 0.00 0.00 64 1013.5
20260504214030 79 192 4.3 8.7 0.00 0.00 0.00 64 1013.5
20260504213526 80 203 4.3 8.7 0.00 0.00 0.00 64 1013.6
20260504213025 80 201 4.3 10.4 0.00 0.00 0.00 63 1013.7
20260504212525 80 186 3.5 11.3 0.00 0.00 0.00 63 1013.6
20260504212025 80 184 4.3 10.4 0.00 0.00 0.00 62 1013.7
20260504211525 80 157 2.6 9.6 0.00 0.00 0.00 62 1013.7
20260504211026 81 169 3.5 9.6 0.00 0.00 0.00 62 1013.7
20260504210524 81 168 2.6 13.9 0.00 0.00 0.00 62 1013.7
20260504210027 81 167 5.2 13.9 0.00 0.00 0.00 61 1013.8
20260504205522 81 173 2.6 9.6 0.00 0.00 0.00 61 1014.0
20260504205020 82 188 3.5 9.6 0.00 0.00 0.00 60 1014.0
20260504204519 81 162 1.7 7.0 0.00 0.00 0.00 61 1014.0
20260504204020 81 195 1.7 7.0 0.00 0.00 0.00 61 1014.1
20260504203518 81 193 2.6 8.7 0.00 0.00 0.00 62 1014.2
20260504203023 81 152 2.6 9.6 0.00 0.00 0.00 62 1014.3
20260504202518 81 134 3.5 8.7 0.00 0.00 0.00 62 1014.4
20260504202017 81 241 5.2 8.7 0.00 0.00 0.00 62 1014.4
20260504201517 81 192 2.6 8.7 0.00 0.00 0.00 61 1014.5
20260504201023 81 183 2.6 8.7 0.00 0.00 0.00 61 1014.5
20260504200516 81 161 1.7 7.0 0.00 0.00 0.00 61 1014.7
20260504200016 81 198 2.6 7.8 0.00 0.00 0.00 60 1014.7
20260504195517 81 163 2.6 7.8 0.00 0.00 0.00 59 1014.8
20260504195015 81 190 2.6 6.1 0.00 0.00 0.00 61 1014.7
20260504194515 80 83 0.9 7.8 0.00 0.00 0.00 60 1014.8
20260504194013 80 122 3.5 7.8 0.00 0.00 0.00 59 1014.9
20260504193516 81 186 3.5 7.8 0.00 0.00 0.00 60 1015.1
20260504193016 81 131 0.9 7.0 0.00 0.00 0.00 60 1015.0
20260504192511 81 152 2.6 9.6 0.00 0.00 0.00 61 1015.0
20260504192011 80 189 0.9 7.8 0.00 0.00 0.00 61 1015.3
20260504191521 80 224 2.6 8.7 0.00 0.00 0.00 62 1015.2
20260504191012 80 195 4.3 10.4 0.00 0.00 0.00 61 1015.2
20260504190509 80 168 2.6 10.4 0.00 0.00 0.00 60 1015.4
20260504190009 81 210 3.5 9.6 0.00 0.00 0.00 59 1015.4
20260504185509 81 142 2.6 6.1 0.00 0.00 0.00 60 1015.4
20260504185008 81 178 2.6 7.0 0.00 0.00 0.00 59 1015.4
20260504184507 81 153 1.7 7.8 0.00 0.00 0.00 60 1015.4
20260504184007 81 205 2.6 9.6 0.00 0.00 0.00 59 1015.5
20260504183505 80 220 4.3 10.4 0.00 0.00 0.00 60 1015.5
20260504183004 79 150 1.7 9.6 0.00 0.00 0.00 61 1015.3
20260504182510 79 169 3.5 12.2 0.00 0.00 0.00 61 1015.4
20260504182006 79 178 3.5 12.2 0.00 0.00 0.00 61 1015.4
20260504181502 80 132 2.6 8.7 0.00 0.00 0.00 60 1015.7
20260504181001 79 149 3.5 9.6 0.00 0.00 0.00 60 1016.0
20260504180501 79 173 2.6 9.6 0.00 0.00 0.00 61 1015.8
20260504180100 79 164 2.6 7.8 0.00 0.00 0.00 61 1016.0
20260504175600 79 212 2.6 7.0 0.00 0.00 0.00 61 1016.2
20260504175059 80 215 2.6 7.8 0.00 0.00 0.00 60 1016.2
20260504174606 79 237 1.7 7.8 0.00 0.00 0.00 61 1016.0
20260504174057 78 209 2.6 8.7 0.00 0.00 0.00 62 1016.3
20260504173556 78 219 2.6 8.7 0.00 0.00 0.00 61 1016.4
20260504173058 78 190 3.5 9.6 0.00 0.00 0.00 61 1016.1
20260504172554 78 190 2.6 9.6 0.00 0.00 0.00 61 1016.4
20260504172054 78 173 6.1 9.6 0.00 0.00 0.00 60 1016.6
20260504171553 78 186 2.6 10.4 0.00 0.00 0.00 63 1016.7
20260504171052 78 183 5.2 10.4 0.00 0.00 0.00 62 1016.8
20260504170552 77 185 2.6 10.4 0.00 0.00 0.00 62 1016.7
20260504151029 74 189 3.5 9.6 0.00 0.00 0.00 68 1017.5
20260504150534 74 167 5.2 10.4 0.00 0.00 0.00 68 1017.7
20260504141019 71 180 2.6 7.0 0.00 0.00 0.00 69 1017.5
20260504140521 71 158 1.7 8.7 0.00 0.00 0.00 69 1017.4
20260504130502 65 157 0.9 2.6 0.00 0.00 0.00 75 1017.5
20260504110554 61 166 0.0 0.0 0.00 0.00 0.00 78 1017.1
20260504100549 61 170 0.0 0.0 0.00 0.00 0.00 76 1017.5
20260504081543 62 182 0.0 0.0 0.00 0.00 0.00 74 1018.0
20260504081038 62 182 0.0 0.0 0.00 0.00 0.00 74 1018.3
20260504080537 62 182 0.0 0.0 0.00 0.00 0.00 74 1018.4
20260504050515 65 166 0.0 0.0 0.00 0.00 0.00 68 1020.1
20260504050013 65 166 0.0 0.9 0.00 0.00 0.00 68 1020.0
20260504045512 65 166 0.0 0.9 0.00 0.00 0.00 68 1020.1
20260504045012 65 190 0.0 0.0 0.00 0.00 0.00 68 1020.1
20260504044515 65 150 0.0 0.0 0.00 0.00 0.00 68 1020.2
20260504044014 65 150 0.0 0.0 0.00 0.00 0.00 67 1020.3
20260504043512 65 150 0.0 0.0 0.00 0.00 0.00 67 1020.2
20260504043012 65 150 0.0 0.0 0.00 0.00 0.00 66 1020.3
20260504042512 66 148 0.0 0.0 0.00 0.00 0.00 66 1020.2
20260504042011 66 147 0.0 0.0 0.00 0.00 0.00 65 1020.2
20260504041511 66 171 0.0 0.0 0.00 0.00 0.00 65 1020.3
20260504041011 66 171 0.0 0.0 0.00 0.00 0.00 64 1020.4
20260504040511 67 171 0.0 0.0 0.00 0.00 0.00 64 1020.3
20260504040011 67 171 0.0 0.0 0.00 0.00 0.00 64 1020.2
20260504035512 67 171 0.0 1.7 0.00 0.00 0.00 63 1020.3
20260504035015 67 163 0.0 4.3 0.00 0.00 0.00 63 1020.1
20260504034511 68 169 0.0 4.3 0.00 0.00 0.00 62 1020.4
20260504034017 68 191 0.0 3.5 0.00 0.00 0.00 62 1020.4
20260504033509 68 169 0.0 3.5 0.00 0.00 0.00 62 1020.3
20260504033009 68 165 0.9 3.5 0.00 0.00 0.00 62 1020.4
20260504032510 68 175 0.0 3.5 0.00 0.00 0.00 61 1020.3
20260504032009 68 160 0.0 3.5 0.00 0.00 0.00 61 1020.4
20260504031510 68 177 0.0 2.6 0.00 0.00 0.00 61 1020.3
20260504031012 68 186 0.0 2.6 0.00 0.00 0.00 60 1020.3
20260504030509 69 163 0.0 0.0 0.00 0.00 0.00 60 1020.3
20260504030009 69 163 0.0 0.0 0.00 0.00 0.00 60 1020.0
20260504025509 69 161 0.0 3.5 0.00 0.00 0.00 59 1019.9
20260504025009 69 153 0.0 3.5 0.00 0.00 0.00 59 1020.0
20260504024508 69 166 0.0 2.6 0.00 0.00 0.00 59 1020.1
20260504024008 70 171 0.0 1.7 0.00 0.00 0.00 58 1020.0
20260504023508 70 132 0.0 5.2 0.00 0.00 0.00 58 1020.1
20260504023008 70 169 0.0 5.2 0.00 0.00 0.00 57 1020.1
20260504022513 70 174 0.9 6.1 0.00 0.00 0.00 57 1020.2
20260504022008 70 168 0.9 6.1 0.00 0.00 0.00 56 1020.1
20260504021509 70 171 0.9 6.1 0.00 0.00 0.00 56 1020.0
20260504021009 71 159 0.0 7.0 0.00 0.00 0.00 56 1020.0
20260504020507 71 183 1.7 9.6 0.00 0.00 0.00 56 1019.9
20260504020007 71 207 1.7 9.6 0.00 0.00 0.00 55 1020.0
20260504015508 71 198 1.7 8.7 0.00 0.00 0.00 54 1020.1
20260504015016 71 159 0.0 7.8 0.00 0.00 0.00 54 1020.0
20260504014507 71 163 3.5 8.7 0.00 0.00 0.00 54 1020.0
20260504014006 72 217 0.9 6.1 0.00 0.00 0.00 54 1019.9
20260504013507 72 138 0.9 5.2 0.00 0.00 0.00 53 1019.8
20260504013011 72 138 0.9 5.2 0.00 0.00 0.00 53 1019.8
20260504012508 72 127 0.9 7.8 0.00 0.00 0.00 52 1019.7
20260504012008 72 167 0.9 8.7 0.00 0.00 0.00 52 1019.6
20260504011505 72 209 0.9 6.1 0.00 0.00 0.00 51 1019.6
20260504011004 73 155 0.9 7.0 0.00 0.00 0.00 51 1019.6
20260504010510 73 180 1.7 7.0 0.00 0.00 0.00 51 1019.7
20260504010004 73 165 1.7 7.0 0.00 0.00 0.00 51 1019.6
20260504005505 73 187 0.0 5.2 0.00 0.00 0.00 50 1019.4
20260504005004 74 153 0.9 4.3 0.00 0.00 0.00 50 1019.5
20260504004506 74 168 0.9 4.3 0.00 0.00 0.00 50 1019.6
20260504004002 74 162 0.0 2.6 0.00 0.00 0.00 49 1019.6
20260504003502 74 159 0.0 6.1 0.00 0.00 0.00 49 1019.6
20260504003003 74 165 0.0 6.1 0.00 0.00 0.00 49 1019.6
20260504002502 75 173 0.0 4.3 0.00 0.00 0.00 48 1019.5
20260504002001 75 163 0.9 7.8 0.00 0.00 0.00 48 1019.6
20260504001502 75 155 0.9 7.8 0.00 0.00 0.00 47 1019.6
20260504001001 75 120 0.9 7.0 0.00 0.00 0.00 48 1019.4